Location: Majestic Skies Ranch
(34.0000°N, 105.9300°W)
Time: 01:25:17
(UTC-06:00)

ISS - Visible Passes

Search period start: 04 August 2015 00:00
Search period end: 14 August 2015 00:00
Orbit: 401 x 403 km, 51.6° (Epoch: 03 August)

Date Brightness Start Highest point End Pass type
(mag) Time Alt. Az. Time Alt. Az. Time Alt. Az.
04 Aug -0.5 20:38:02 10° W 20:40:34 20° NNW 20:43:03 10° NNE visible
06 Aug 0.0 20:30:12 10° NW 20:31:11 11° NNW 20:32:05 10° N visible
13 Aug -0.2 22:23:31 10° N 22:24:00 12° N 22:24:00 12° N visible
